Location: Presov
(49.0000°N, 21.2500°E)
Time: 10:44:17
(UTC+02:00)

A-11 Canister half - Pass Details

Date: 21 April 2021
Orbit: 1526 x 1683 km, 47.3° (Epoch: 11 May)

Event Time Altitude Azimuth Distance (km) Brightness Sun altitude
Rises 21:11:04 0° 288° (WNW) 4,936 13.1 -14.4°
Reaches altitude 10° 21:14:21 10° 284° (WNW) 3,949 12.2 -14.8°
Maximum altitude 21:23:57 50° 213° (SSW) 2,055 9.6 -16.0°
Enters shadow 21:30:46 20° 149° (SSE) 3,148 10.0 -16.8°
